Wind_Speed
78 78 79 81 83 84 84 85 87 88 89 90 92 93 93 94 94 94 94 94 94 94 94 95 95 96 96 97 97 98 99 99 100 100 101 101 102 102 103 103 103 104
80 81 83 85 86 86 87 88 89 91 93 94 96 96 97 97 97 97 96 97 97 97 97 98 98 98 98 99 100 100 101 101 102 103 103 104 104 105 105 106 106 106
83 85 88 89 89 89 90 91 93 94 96 98 99 99 99 100 100 99 99 100 100 100 101 101 101 101 101 101 102 103 103 103 104 105 105 106 106 107 108 108 109 109
86 89 91 91 91 91 93 95 97 98 100 101 102 102 102 102 102 102 102 102 103 103 103 104 104 104 104 104 105 105 105 106 106 107 107 107 108 109 110 111 111 111
91 93 93 93 93 95 97 99 100 102 103 104 104 104 104 104 104 104 105 105 105 106 106 106 106 107 107 107 107 107 107 108 108 108 109 109 110 111 112 113 114 114
94 95 95 95 97 99 101 103 104 105 105 106 106 106 106 106 106 107 107 107 107 108 108 108 109 109 109 109 109 109 109 109 110 110 111 111 112 113 114 115 116 116
97 97 98 99 101 103 105 106 107 108 108 108 108 108 108 108 109 109 109 109 109 109 110 110 111 111 111 111 111 111 111 111 111 112 113 113 114 115 116 117 118 118
100 101 102 103 105 106 108 109 110 110 110 111 111 110 110 110 111 111 111 111 111 111 112 112 113 114 113 113 112 112 112 112 113 114 115 115 116 117 118 119 119 120
104 105 106 107 108 109 111 111 112 112 112 113 113 113 112 112 112 112 112 112 112 113 114 115 116 116 115 114 113 113 114 114 115 116 117 117 118 119 120 121 122 122
108 109 110 111 111 112 113 113 113 114 114 114 114 114 114 113 113 113 113 113 114 114 116 117 117 117 116 115 115 115 115 116 117 118 119 119 120 121 122 123 123 124
112 112 112 113 113 113 114 114 115 115 115 116 115 115 114 114 114 114 114 114 115 117 118 119 118 118 117 116 117 117 117 118 119 120 120 121 122 123 124 125 125 126
113 114 114 114 115 115 115 116 116 116 116 116 115 115 115 115 115 115 115 116 118 119 120 120 119 119 118 118 118 118 119 119 120 121 122 123 125 125 126 126 126 127
114 115 115 115 116 116 116 117 117 117 116 116 116 115 115 115 116 116 117 118 119 120 120 120 120 120 119 120 120 120 121 121 122 124 125 126 127 127 128 127 127 127
116 116 116 116 117 117 117 117 117 117 116 116 116 116 116 117 118 118 119 119 120 120 121 121 121 121 121 121 122 122 123 123 124 126 127 128 129 128 128 128 128 128
116 117 117 117 117 117 117 117 116 116 116 116 117 117 118 118 119 120 120 121 121 122 122 122 122 122 122 123 123 124 125 126 127 128 129 129 128 128 127 128 128 129
116 117 117 117 117 117 117 116 116 117 117 118 118 119 120 120 121 122 122 123 124 124 124 124 124 124 124 125 126 126 127 128 128 129 129 128 127 127 127 128 129 130
118 118 118 117 117 118 118 118 119 119 120 121 122 122 123 123 124 124 125 125 126 126 126 125 125 126 126 127 127 128 128 128 128 128 128 127 127 128 129 130 131 131
120 120 120 120 121 121 122 123 123 123 124 125 125 125 126 126 126 127 127 127 127 127 127 127 127 128 128 128 128 128 128 128 128 127 127 128 129 130 130 131 131 131
123 123 124 124 124 125 125 125 126 126 126 127 127 127 127 127 128 128 128 128 128 128 128 128 128 128 128 128 127 127 128 128 128 128 129 129 130 131 131 131 132 132
125 125 126 126 126 126 126 126 127 127 127 127 127 128 128 129 129 129 129 129 129 129 129 129 128 128 127 127 127 128 128 128 129 129 130 131 131 131 132 132 133 133
126 126 126 126 126 127 127 127 127 128 128 128 129 129 130 130 130 130 130 129 129 129 128 128 127 127 127 127 128 128 129 129 130 130 131 132 132 132 133 134 135 136
126 126 126 126 126 127 127 128 128 129 129 130 130 130 130 130 129 129 129 128 128 128 127 127 128 128 128 129 129 129 129 130 131 131 132 132 133 134 135 136 136 137
125 125 125 126 126 127 128 128 129 129 130 130 129 129 129 129 128 128 128 128 128 128 128 128 129 129 129 130 130 130 130 131 132 132 133 134 134 135 135 136 136 136
125 125 126 126 127 128 128 129 129 129 129 129 128 128 128 128 128 128 128 128 129 129 129 130 130 130 131 131 131 131 131 132 132 133 133 134 134 134 134 135 136 137
126 126 126 127 127 127 128 128 128 128 128 128 128 128 128 128 128 129 129 130 130 130 130 131 131 131 131 132 132 132 132 132 133 133 133 133 133 133 135 136 137 139
126 126 126 126 126 127 127 127 127 127 127 127 128 128 128 128 129 129 129 129 130 130 131 131 132 132 132 132 132 132 132 132 132 132 132 132 133 134 136 137 138 139
Wind_Direction
284 284 285 287 288 288 288 289 290 291 293 294 296 298 300 301 302 303 304 305 305 305 305 306 306 306 307 307 307 307 307 307 307 307 307 307 307 307 308 308 308 309
283 283 285 287 288 287 288 288 289 291 293 295 297 298 300 301 302 303 304 304 304 305 305 305 306 306 306 306 306 306 306 306 306 306 306 306 307 307 307 308 308 308
283 284 286 287 287 287 287 288 290 291 293 295 297 299 300 301 302 303 303 303 304 304 304 305 305 305 305 306 306 306 306 306 306 306 306 306 306 306 307 307 308 308
283 285 286 286 286 286 287 288 290 292 294 296 298 299 300 301 301 302 302 302 303 303 304 304 305 305 305 305 305 305 305 305 305 305 306 306 306 306 306 307 307 307
283 285 285 285 285 286 287 289 291 293 295 297 298 299 300 300 301 301 301 301 302 302 303 304 304 304 304 304 304 304 304 305 305 305 305 305 305 305 305 306 306 306
283 284 284 284 285 285 287 289 291 293 295 297 298 299 299 299 300 300 300 300 301 301 302 303 303 303 303 303 304 304 304 304 304 304 304 304 304 304 304 305 305 305
282 283 283 284 285 286 288 290 292 294 295 297 297 298 298 299 299 299 299 300 300 300 301 302 302 302 303 303 303 303 303 303 303 303 303 303 303 303 303 304 304 305
282 282 283 285 286 287 289 291 292 294 295 296 297 297 298 298 298 298 299 299 299 300 300 301 301 302 302 302 302 302 302 302 302 302 302 302 302 302 303 303 304 304
282 283 285 286 287 289 290 292 293 294 295 296 296 297 297 297 298 298 298 298 298 299 299 300 300 301 301 301 301 301 301 301 301 301 301 301 302 302 303 303 303 304
283 285 286 287 289 290 291 292 293 293 294 295 295 296 296 297 297 297 297 297 297 298 298 299 300 300 300 300 300 300 300 300 300 300 300 301 301 302 302 303 303 303
285 286 287 288 289 290 291 291 292 292 293 294 294 295 295 296 296 296 296 296 296 297 298 298 299 299 299 299 299 299 299 299 299 299 300 300 301 301 302 302 302 302
286 287 288 288 289 289 290 290 291 291 292 293 293 294 294 294 294 294 295 295 296 296 297 298 298 298 298 298 298 298 298 298 298 298 299 299 300 301 301 301 301 301
285 286 286 287 288 288 289 289 290 290 291 292 292 292 292 293 293 294 294 294 295 295 296 297 297 297 297 297 297 297 297 297 297 298 298 299 300 300 300 301 301 301
284 285 285 286 287 287 288 288 289 289 290 290 291 291 291 292 292 293 293 293 294 294 295 295 295 295 295 295 296 296 296 296 297 297 298 299 299 300 300 300 300 300
283 284 284 285 285 286 286 287 287 288 288 289 289 290 290 291 291 291 292 292 292 293 293 293 294 294 294 294 295 295 295 296 296 297 298 298 299 299 299 299 300 300
282 282 283 283 284 284 285 285 286 286 287 287 288 288 288 289 289 290 290 290 291 291 292 292 292 293 293 293 294 294 295 295 296 297 297 298 298 298 299 299 299 300
280 280 281 281 282 282 283 283 284 285 285 286 286 287 287 288 288 289 289 290 290 291 291 291 291 292 292 293 293 294 295 295 296 296 297 297 297 298 298 299 299 300
278 279 279 280 281 281 282 283 284 284 285 285 286 287 287 287 288 288 288 289 289 290 290 290 291 291 292 293 293 294 294 295 295 296 296 297 297 297 298 298 299 299
278 279 279 280 281 282 282 283 284 284 285 285 286 286 286 287 287 288 288 288 289 289 290 290 291 291 292 293 293 294 294 294 295 295 296 296 297 297 298 298 298 298
278 279 280 281 281 282 283 283 284 284 284 285 285 286 286 286 287 287 288 288 289 289 289 290 291 291 292 292 293 293 294 294 295 295 296 296 296 297 297 297 298 298
278 279 280 280 281 282 282 283 283 284 284 284 285 285 286 286 287 287 288 288 289 289 290 290 291 291 292 292 292 293 294 294 295 295 295 296 296 297 297 297 298 298
278 279 279 280 281 281 282 282 283 283 284 284 285 285 286 286 286 287 287 288 289 289 290 290 291 291 291 292 292 293 293 294 294 295 295 296 296 297 297 298 298 299
278 279 279 280 281 281 282 282 283 283 284 284 285 285 285 286 286 287 288 288 289 289 289 290 290 290 291 291 292 292 293 293 294 294 295 296 296 297 297 298 298 298
278 279 279 280 280 281 282 282 283 283 283 284 284 285 285 286 286 287 287 288 288 288 289 289 290 290 291 291 291 292 293 293 294 294 295 296 296 297 297 297 298 298
277 278 278 279 280 280 281 281 282 282 283 283 284 284 285 285 286 286 287 287 288 288 288 289 289 290 290 291 292 292 293 293 294 294 295 295 296 296 296 297 297 298
276 277 277 278 279 279 280 280 281 281 282 283 283 284 284 285 285 286 286 287 287 287 288 289 289 290 290 291 292 292 293 293 294 294 294 295 295 296 296 296 297 297
Height
10782 10780 10778 10777 10775 10772 10770 10768 10766 10764 10762 10760 10758 10756 10754 10752 10750 10748 10745 10742 10739 10736 10733 10730 10726 10723 10719 10716 10712 10708 10705 10701 10697 10693 10688 10684 10679 10674 10670 10665 10661 10656
10774 10772 10770 10769 10766 10764 10762 10760 10758 10756 10753 10752 10749 10747 10745 10743 10741 10738 10735 10732 10729 10726 10723 10720 10717 10714 10711 10707 10703 10699 10695 10691 10687 10683 10678 10673 10668 10663 10658 10654 10650 10645
10765 10763 10762 10760 10757 10755 10753 10751 10749 10747 10744 10742 10740 10738 10736 10733 10731 10728 10725 10722 10719 10715 10712 10710 10707 10704 10701 10697 10693 10689 10685 10681 10677 10672 10667 10662 10657 10652 10647 10643 10639 10635
10756 10754 10752 10750 10748 10746 10744 10742 10740 10738 10735 10733 10730 10728 10726 10723 10721 10718 10715 10712 10708 10705 10702 10699 10696 10693 10690 10686 10682 10678 10674 10670 10666 10661 10656 10651 10646 10641 10636 10631 10627 10623
10747 10745 10743 10741 10739 10737 10735 10733 10731 10729 10726 10724 10721 10719 10717 10714 10711 10708 10705 10702 10699 10696 10693 10689 10686 10682 10679 10675 10671 10667 10663 10659 10654 10650 10645 10640 10635 10630 10625 10620 10615 10611
10739 10737 10735 10733 10731 10728 10726 10724 10722 10720 10718 10715 10713 10710 10707 10705 10702 10699 10696 10692 10689 10686 10683 10680 10676 10673 10669 10665 10661 10657 10653 10648 10643 10638 10634 10629 10624 10619 10614 10609 10604 10600
10731 10729 10727 10724 10722 10720 10717 10715 10713 10711 10708 10706 10703 10701 10698 10695 10692 10689 10686 10682 10679 10676 10673 10670 10666 10662 10659 10654 10650 10646 10642 10637 10632 10627 10622 10617 10613 10608 10604 10599 10594 10589
10723 10720 10718 10715 10713 10711 10708 10706 10703 10701 10698 10696 10693 10691 10688 10685 10682 10678 10675 10672 10669 10665 10662 10658 10655 10651 10648 10644 10640 10635 10631 10626 10621 10616 10611 10605 10601 10597 10592 10588 10583 10577
10714 10711 10709 10706 10704 10701 10699 10696 10694 10691 10688 10686 10683 10681 10678 10675 10672 10668 10665 10661 10658 10654 10651 10647 10644 10640 10637 10633 10629 10624 10620 10615 10610 10604 10599 10594 10589 10584 10580 10575 10570 10565
10704 10701 10699 10697 10694 10692 10689 10686 10684 10681 10679 10676 10673 10671 10668 10665 10661 10657 10654 10651 10647 10643 10640 10636 10633 10629 10625 10622 10617 10613 10608 10603 10598 10592 10586 10581 10577 10572 10567 10562 10557 10552
10694 10692 10690 10687 10684 10682 10679 10677 10674 10671 10669 10666 10664 10661 10658 10654 10651 10647 10643 10640 10636 10633 10629 10625 10622 10618 10614 10610 10605 10600 10596 10591 10585 10579 10574 10569 10565 10561 10555 10551 10546 10540
10685 10682 10680 10677 10674 10672 10669 10667 10664 10661 10659 10657 10654 10651 10648 10644 10640 10636 10633 10629 10625 10622 10617 10614 10610 10606 10601 10597 10592 10588 10583 10578 10573 10567 10562 10558 10553 10549 10543 10539 10534 10528
10675 10672 10670 10667 10664 10662 10659 10656 10654 10651 10649 10646 10643 10640 10636 10633 10629 10625 10622 10618 10614 10610 10606 10602 10598 10594 10589 10585 10580 10576 10571 10566 10561 10554 10550 10546 10541 10536 10531 10526 10521 10515
10664 10662 10659 10656 10654 10651 10648 10646 10644 10641 10638 10635 10632 10629 10625 10621 10618 10614 10610 10607 10603 10599 10594 10591 10586 10582 10577 10573 10568 10564 10559 10554 10549 10543 10538 10534 10528 10523 10518 10512 10507 10501
10653 10651 10648 10645 10643 10641 10638 10635 10633 10630 10627 10623 10620 10617 10613 10610 10606 10602 10598 10595 10591 10587 10583 10578 10575 10570 10565 10561 10556 10552 10547 10542 10537 10532 10527 10522 10516 10510 10504 10498 10492 10487
10642 10639 10637 10634 10632 10629 10627 10624 10621 10618 10615 10612 10608 10605 10602 10598 10594 10590 10586 10582 10578 10574 10571 10566 10562 10558 10554 10549 10545 10540 10535 10529 10524 10519 10514 10510 10505 10498 10491 10486 10479 10474
10629 10626 10624 10622 10619 10617 10614 10612 10609 10606 10602 10599 10596 10593 10590 10586 10582 10578 10574 10570 10566 10562 10558 10554 10550 10546 10542 10537 10533 10528 10523 10517 10512 10507 10502 10497 10492 10487 10480 10474 10468 10462
10616 10614 10611 10609 10607 10604 10602 10599 10596 10593 10590 10587 10583 10580 10577 10573 10569 10566 10562 10558 10554 10550 10546 10542 10537 10533 10529 10525 10520 10515 10510 10505 10500 10495 10490 10485 10479 10474 10468 10462 10456 10451
10603 10601 10598 10596 10594 10591 10589 10586 10584 10581 10577 10574 10571 10567 10563 10559 10555 10552 10548 10545 10541 10537 10533 10529 10525 10521 10517 10512 10507 10502 10497 10492 10488 10482 10477 10472 10467 10461 10455 10450 10444 10438
10590 10588 10586 10584 10581 10579 10576 10573 10570 10568 10564 10561 10558 10553 10549 10546 10541 10538 10534 10531 10527 10523 10519 10515 10512 10508 10504 10499 10494 10489 10484 10480 10475 10469 10464 10458 10453 10448 10442 10436 10430 10424
10578 10576 10573 10571 10569 10566 10563 10560 10556 10554 10550 10547 10543 10539 10536 10532 10527 10523 10520 10516 10513 10509 10506 10502 10498 10494 10489 10485 10480 10476 10472 10467 10461 10456 10451 10445 10440 10434 10428 10422 10416 10409
10565 10563 10560 10558 10555 10552 10549 10546 10542 10539 10536 10532 10528 10525 10521 10517 10513 10509 10505 10502 10499 10495 10492 10488 10483 10480 10476 10472 10468 10464 10459 10454 10448 10443 10437 10432 10426 10420 10413 10407 10400 10394
10551 10549 10547 10544 10541 10538 10534 10531 10528 10524 10521 10517 10513 10510 10506 10503 10499 10496 10492 10489 10485 10481 10477 10473 10469 10466 10463 10459 10455 10451 10446 10441 10435 10429 10424 10418 10412 10405 10399 10392 10385 10379
10537 10535 10533 10530 10527 10524 10520 10517 10514 10510 10506 10503 10499 10496 10492 10489 10486 10482 10478 10475 10471 10467 10463 10459 10456 10452 10449 10446 10442 10438 10433 10428 10422 10416 10410 10404 10398 10391 10385 10379 10372 10364
10524 10521 10519 10517 10513 10510 10507 10503 10500 10496 10492 10489 10486 10482 10479 10476 10472 10468 10465 10460 10456 10452 10448 10445 10442 10438 10434 10431 10427 10424 10419 10414 10408 10403 10397 10391 10384 10378 10371 10365 10358 10350
10510 10508 10505 10503 10500 10497 10494 10490 10487 10483 10479 10476 10472 10469 10466 10462 10458 10454 10450 10446 10441 10437 10434 10430 10427 10424 10420 10416 10413 10408 10404 10399 10394 10389 10384 10378 10372 10365 10358 10352 10345 10337